Location: Boiro
(42.6475°N, 8.8834°W)
Time: 14:51:26
(UTC+02:00)

Explorer 7 - Pass Details

Date: 29 June 2022
Orbit: 482 x 668 km, 50.3° (Epoch: 15 August)

Event Time Altitude Azimuth Distance (km) Brightness Sun altitude
Exits shadow 01:20:42 42° 104° (ESE) 947 7.7 -21.7°
Drops below altitude 10° 01:24:18 10° 67° (ENE) 2,054 9.8 -21.9°
Sets 01:26:39 0° 62° (ENE) 2,945 10.7 -22.0°
